When you browse on this site, cookies collect data to enhance your experience and personalize the content and advertising you see.
Visit our Privacy Policy to learn more. By continuing to use the site, you agree to this use of cookies and data.
  • Em Portugal
  • Lista de países
  • Para 7 dias
  • Temperatura da água
  • Mapas de satélite
  • Mapa do tempo
  • Widgets de tempo
  • user-avatar
    Iniciar Sessão

    Previsão horária em Osowa

    Hoje, 22 Julho, Segunda-feira

    Tempo Temperatura Precipitação Vento Pressão Humidade
    00:00 +16°C° 0 mm 3 m/s 745 mmHg 96%
    01:00 +14°C° 0 mm 3 m/s 745 mmHg 96%
    02:00 +14°C° 0 mm 3 m/s 745 mmHg 96%
    03:00 +14°C° 0 mm 3 m/s 745 mmHg 97%
    04:00 +13°C° 0 mm 3 m/s 745 mmHg 97%
    05:00 +13°C° 0 mm 3 m/s 745 mmHg 97%
    06:00 +14°C° 0 mm 4 m/s 745 mmHg 95%
    07:00 +15°C° 0 mm 4 m/s 745 mmHg 93%
    08:00 +17°C° 0 mm 4 m/s 745 mmHg 91%
    09:00 +17°C° 0.1 mm 5 m/s 746 mmHg 88%
    10:00 +19°C° 0.1 mm 5 m/s 746 mmHg 84%
    11:00 +20°C° 0.1 mm 5 m/s 746 mmHg 80%
    12:00 +20°C° 0.6 mm 6 m/s 746 mmHg 78%
    13:00 +21°C° 0.6 mm 6 m/s 746 mmHg 77%
    14:00 +21°C° 0.6 mm 7 m/s 745 mmHg 75%
    15:00 +21°C° 0.1 mm 7 m/s 746 mmHg 74%
    16:00 +21°C° 0.1 mm 7 m/s 746 mmHg 72%
    17:00 +20°C° 0.1 mm 7 m/s 746 mmHg 70%
    18:00 +19°C° 0 mm 6 m/s 746 mmHg 75%
    19:00 +16°C° 0 mm 5 m/s 746 mmHg 79%
    20:00 +15°C° 0 mm 4 m/s 745 mmHg 83%
    21:00 +14°C° 0 mm 4 m/s 746 mmHg 87%
    22:00 +13°C° 0 mm 4 m/s 746 mmHg 91%
    23:00 +12°C° 0 mm 4 m/s 746 mmHg 95%

    Amanhã, 23 Julho, Terça-feira

    Tempo Temperatura Precipitação Vento Pressão Humidade
    00:00 +12°C° 0 mm 4 m/s 746 mmHg 96%
    01:00 +12°C° 0 mm 4 m/s 746 mmHg 96%
    02:00 +11°C° 0 mm 3 m/s 746 mmHg 97%
    03:00 +12°C° 0 mm 3 m/s 746 mmHg 97%
    04:00 +12°C° 0 mm 3 m/s 746 mmHg 97%
    05:00 +12°C° 0 mm 3 m/s 746 mmHg 98%
    06:00 +13°C° 0 mm 4 m/s 745 mmHg 94%
    07:00 +15°C° 0 mm 4 m/s 745 mmHg 90%
    08:00 +17°C° 0 mm 4 m/s 745 mmHg 86%
    09:00 +19°C° 0 mm 4 m/s 746 mmHg 80%
    10:00 +20°C° 0 mm 4 m/s 746 mmHg 75%
    11:00 +21°C° 0 mm 4 m/s 746 mmHg 69%
    12:00 +22°C° 0.1 mm 4 m/s 746 mmHg 68%
    13:00 +22°C° 0.1 mm 5 m/s 746 mmHg 66%
    14:00 +23°C° 0.1 mm 5 m/s 745 mmHg 64%
    15:00 +22°C° 0 mm 5 m/s 745 mmHg 65%
    16:00 +22°C° 0 mm 5 m/s 746 mmHg 67%
    17:00 +22°C° 0 mm 5 m/s 746 mmHg 69%
    18:00 +21°C° 0 mm 4 m/s 745 mmHg 75%
    19:00 +19°C° 0 mm 3 m/s 745 mmHg 81%
    20:00 +18°C° 0 mm 3 m/s 745 mmHg 87%
    21:00 +17°C° 0 mm 3 m/s 745 mmHg 90%
    22:00 +16°C° 0 mm 3 m/s 746 mmHg 93%
    23:00 +15°C° 0 mm 2 m/s 746 mmHg 96%

    Depois de amanhã, 24 Julho, Quarta-feira

    Tempo Temperatura Precipitação Vento Pressão Humidade
    00:00 +14°C° 0 mm 2 m/s 746 mmHg 96%
    01:00 +14°C° 0 mm 2 m/s 746 mmHg 97%
    02:00 +14°C° 0 mm 2 m/s 745 mmHg 97%
    03:00 +14°C° 0 mm 2 m/s 745 mmHg 97%
    04:00 +13°C° 0 mm 2 m/s 745 mmHg 97%
    05:00 +13°C° 0 mm 2 m/s 746 mmHg 97%
    06:00 +15°C° 0 mm 2 m/s 746 mmHg 93%
    07:00 +17°C° 0 mm 2 m/s 746 mmHg 89%
    08:00 +18°C° 0 mm 2 m/s 746 mmHg 85%
    09:00 +20°C° 0 mm 2 m/s 746 mmHg 80%
    10:00 +21°C° 0 mm 2 m/s 746 mmHg 74%
    11:00 +23°C° 0 mm 2 m/s 746 mmHg 69%
    12:00 +24°C° 0.2 mm 2 m/s 746 mmHg 68%
    13:00 +24°C° 0.2 mm 2 m/s 746 mmHg 66%
    14:00 +25°C° 0.2 mm 2 m/s 746 mmHg 65%
    15:00 +25°C° 0.2 mm 2 m/s 746 mmHg 67%
    16:00 +25°C° 0.2 mm 2 m/s 746 mmHg 68%
    17:00 +24°C° 0.2 mm 2 m/s 746 mmHg 70%
    18:00 +23°C° 0.1 mm 2 m/s 746 mmHg 75%
    19:00 +21°C° 0.1 mm 2 m/s 746 mmHg 79%
    20:00 +21°C° 0.1 mm 1 m/s 746 mmHg 84%
    21:00 +20°C° 0 mm 1 m/s 746 mmHg 86%
    22:00 +19°C° 0 mm 1 m/s 747 mmHg 88%
    23:00 +18°C° 0 mm 1 m/s 747 mmHg 90%

    25 Julho, Quinta-feira

    Tempo Temperatura Precipitação Vento Pressão Humidade
    00:00 +18°C° 0 mm 1 m/s 747 mmHg 90%
    01:00 +16°C° 0 mm 1 m/s 747 mmHg 90%
    02:00 +16°C° 0 mm 1 m/s 747 mmHg 90%
    03:00 +16°C° 0 mm 1 m/s 748 mmHg 91%
    04:00 +16°C° 0 mm 1 m/s 748 mmHg 92%
    05:00 +15°C° 0 mm 1 m/s 748 mmHg 93%
    06:00 +17°C° 0 mm 2 m/s 748 mmHg 89%
    07:00 +19°C° 0 mm 2 m/s 748 mmHg 86%
    08:00 +20°C° 0 mm 2 m/s 748 mmHg 82%
    09:00 +23°C° 0 mm 2 m/s 748 mmHg 76%
    10:00 +24°C° 0 mm 3 m/s 749 mmHg 70%
    11:00 +25°C° 0 mm 3 m/s 749 mmHg 64%
    12:00 +25°C° 0 mm 3 m/s 749 mmHg 63%
    13:00 +26°C° 0 mm 3 m/s 749 mmHg 61%
    14:00 +26°C° 0 mm 3 m/s 748 mmHg 60%
    15:00 +26°C° 0 mm 3 m/s 748 mmHg 61%
    16:00 +26°C° 0 mm 3 m/s 748 mmHg 63%
    17:00 +26°C° 0 mm 3 m/s 748 mmHg 65%
    18:00 +25°C° 0 mm 3 m/s 748 mmHg 71%
    19:00 +24°C° 0 mm 3 m/s 748 mmHg 78%
    20:00 +21°C° 0 mm 2 m/s 748 mmHg 84%
    21:00 +20°C° 0 mm 2 m/s 748 mmHg 87%
    22:00 +19°C° 0 mm 2 m/s 749 mmHg 90%
    23:00 +18°C° 0 mm 2 m/s 749 mmHg 93%

    26 Julho, Sexta-feira

    Tempo Temperatura Precipitação Vento Pressão Humidade
    00:00 +18°C° 0 mm 2 m/s 749 mmHg 93%
    01:00 +18°C° 0 mm 2 m/s 749 mmHg 93%
    02:00 +18°C° 0 mm 2 m/s 749 mmHg 94%
    03:00 +17°C° 0 mm 2 m/s 749 mmHg 94%
    04:00 +17°C° 0 mm 2 m/s 749 mmHg 94%
    05:00 +17°C° 0 mm 2 m/s 749 mmHg 94%
    06:00 +18°C° 0 mm 2 m/s 749 mmHg 88%
    07:00 +20°C° 0 mm 2 m/s 749 mmHg 83%
    08:00 +23°C° 0 mm 2 m/s 749 mmHg 77%
    09:00 +24°C° 0 mm 2 m/s 749 mmHg 72%
    10:00 +25°C° 0 mm 3 m/s 749 mmHg 67%
    11:00 +27°C° 0 mm 3 m/s 749 mmHg 62%
    12:00 +27°C° 0 mm 3 m/s 748 mmHg 61%
    13:00 +28°C° 0 mm 3 m/s 748 mmHg 59%
    14:00 +28°C° 0 mm 3 m/s 748 mmHg 58%
    15:00 +28°C° 0 mm 3 m/s 748 mmHg 59%
    16:00 +28°C° 0 mm 3 m/s 747 mmHg 61%
    17:00 +28°C° 0 mm 3 m/s 747 mmHg 62%
    18:00 +26°C° 0 mm 3 m/s 747 mmHg 68%
    19:00 +25°C° 0 mm 2 m/s 747 mmHg 74%
    20:00 +24°C° 0 mm 2 m/s 746 mmHg 80%
    21:00 +21°C° 0 mm 2 m/s 746 mmHg 83%
    22:00 +20°C° 0 mm 2 m/s 746 mmHg 86%
    23:00 +19°C° 0 mm 2 m/s 746 mmHg 89%

    27 Julho, Sábado

    Tempo Temperatura Precipitação Vento Pressão Humidade
    00:00 +19°C° 0 mm 2 m/s 746 mmHg 90%
    01:00 +19°C° 0 mm 2 m/s 746 mmHg 90%
    02:00 +20°C° 0 mm 1 m/s 746 mmHg 91%
    03:00 +19°C° 0 mm 1 m/s 746 mmHg 92%
    04:00 +19°C° 0 mm 1 m/s 746 mmHg 92%
    05:00 +19°C° 0 mm 1 m/s 746 mmHg 93%
    06:00 +21°C° 0 mm 1 m/s 746 mmHg 88%
    07:00 +21°C° 0 mm 2 m/s 746 mmHg 83%
    08:00 +24°C° 0 mm 2 m/s 745 mmHg 79%
    09:00 +25°C° 0 mm 2 m/s 745 mmHg 72%
    10:00 +26°C° 0 mm 2 m/s 745 mmHg 66%
    11:00 +28°C° 0 mm 3 m/s 745 mmHg 60%
    12:00 +28°C° 0 mm 3 m/s 745 mmHg 58%
    13:00 +29°C° 0 mm 3 m/s 745 mmHg 56%
    14:00 +29°C° 0 mm 2 m/s 744 mmHg 54%
    15:00 +29°C° 0 mm 2 m/s 744 mmHg 56%
    16:00 +29°C° 0 mm 2 m/s 744 mmHg 58%
    17:00 +29°C° 0 mm 2 m/s 743 mmHg 60%
    18:00 +27°C° 0 mm 2 m/s 743 mmHg 66%
    19:00 +26°C° 0 mm 2 m/s 743 mmHg 73%
    20:00 +24°C° 0 mm 2 m/s 743 mmHg 80%
    21:00 +23°C° 0 mm 1 m/s 743 mmHg 82%
    22:00 +22°C° 0 mm 1 m/s 743 mmHg 84%
    23:00 +21°C° 0 mm 1 m/s 743 mmHg 87%
    Mostrar mais